User: anonymous   Login
Location: Chaumontel
(49.1247°N, 2.4324°E)
Time: 01:34:07
(UTC+00:00)
Language:

IRIDIUM 103 - Orbit

View from above orbital plane
View from above orbital plane
View from above satellite
View from above satellite

Ground track
Ground track

The orbit data is extracted from the following two-line orbital elements,

1 41918U 17003B   25163.17012014  .00000199  00000-0  64013-4 0  9994
2 41918  86.3974 242.9989 0002821 100.1453 260.0061 14.34218109440200
Epoch (UTC): 12 June 2025 04:04:58
Eccentricity: 0.0002821
inclination: 86.3974°
perigee height: 775 km
apogee height: 779 km
right ascension of ascending node: 242.9989°
argument of perigee: 100.1453°
revolutions per day: 14.34218109
mean anomaly at epoch: 260.0061°
orbit number at epoch: 44020

The dashed part of the orbit path shows where the satellite is in the earth's shadow,  

DLR